GW1739 Weather Reports


Display with metric or nautical units.
time (UTC)temp
F
wind
direction
speed
MPH
gust
MPH
rain 1hr
in
rain 24hr
in
rain mn
in
humidity
%
barometer
mb
20260503055011 54 64 0.0 1.0 0.00 0.00 0.00 49 1017.1
20260503054519 54 64 0.0 1.0 0.00 0.00 0.00 51 1017.0
20260503054003 54 61 0.0 1.0 0.00 0.00 0.00 48 1017.0
20260503053506 54 53 0.0 1.0 0.00 0.00 0.00 50 1017.1
20260503053027 54 47 0.0 1.0 0.00 0.00 0.00 49 1017.0
20260503052507 54 46 0.0 1.0 0.00 0.00 0.00 51 1017.0
20260503052010 54 96 0.0 1.0 0.00 0.00 0.00 50 1017.0
20260503051518 54 90 0.0 1.0 0.00 0.00 0.00 52 1017.0
20260503051005 54 101 0.0 1.0 0.00 0.00 0.00 52 1017.0
20260503050511 54 101 0.0 1.0 0.00 0.00 0.00 52 1017.1
20260503050024 54 101 0.0 1.0 0.00 0.00 0.00 51 1017.1
20260503045511 54 101 0.0 1.0 0.00 0.00 0.00 53 1017.1
20260503045010 54 101 0.0 1.0 0.00 0.00 0.00 52 1017.1
20260503044528 54 101 0.0 2.0 0.00 0.00 0.00 51 1017.1
20260503044010 55 56 0.0 2.0 0.00 0.00 0.00 52 1017.1
20260503043506 56 134 0.0 2.0 0.00 0.00 0.00 50 1017.1
20260503043019 56 134 0.0 7.0 0.00 0.00 0.00 49 1017.1
20260503042503 56 97 0.0 8.0 0.00 0.00 0.00 49 1017.1
20260503042010 56 171 1.0 12.0 0.00 0.00 0.00 49 1017.0
20260503041517 56 139 3.0 15.0 0.00 0.00 0.00 50 1017.0
20260503041008 57 160 8.0 15.0 0.00 0.00 0.00 46 1017.2
20260503040506 57 153 2.0 11.0 0.00 0.00 0.00 44 1016.6
20260503040031 57 192 2.0 7.0 0.00 0.00 0.00 43 1016.5
20260503035506 57 71 0.0 1.0 0.00 0.00 0.00 42 1016.2
20260503035010 57 65 0.0 1.0 0.00 0.00 0.00 44 1016.2
20260503034524 56 28 0.0 4.0 0.00 0.00 0.00 43 1016.0
20260503034008 56 30 0.0 4.0 0.00 0.00 0.00 43 1016.0
20260503033512 56 55 0.0 3.0 0.00 0.00 0.00 43 1016.0
20260503033030 56 81 0.0 3.0 0.00 0.00 0.00 42 1015.8
20260503032510 57 32 0.0 2.0 0.00 0.00 0.00 42 1015.8
20260503032012 57 59 0.0 4.0 0.00 0.00 0.00 42 1015.8
20260503031516 57 72 0.0 4.0 0.00 0.00 0.00 42 1015.7
20260503031005 57 136 0.0 3.0 0.00 0.00 0.00 42 1015.7
20260503030507 58 360 1.0 6.0 0.00 0.00 0.00 42 1015.6
20260503030024 58 360 1.0 6.0 0.00 0.00 0.00 41 1015.6
20260503025508 59 5 0.0 5.0 0.00 0.00 0.00 40 1015.6
20260503025008 59 136 0.0 8.0 0.00 0.00 0.00 40 1015.6
20260503024525 59 134 1.0 8.0 0.00 0.00 0.00 40 1015.5
20260503024007 60 201 0.0 7.0 0.00 0.00 0.00 38 1015.6
20260503023508 60 130 0.0 7.0 0.00 0.00 0.00 38 1015.8
20260503023028 60 171 1.0 7.0 0.00 0.00 0.00 37 1015.8
20260503022507 61 351 0.0 4.0 0.00 0.00 0.00 36 1015.9
20260503022013 61 217 1.0 4.0 0.00 0.00 0.00 35 1015.8
20260503021526 61 116 0.0 10.0 0.00 0.00 0.00 37 1015.7
20260503021004 61 105 1.0 10.0 0.00 0.00 0.00 35 1015.6
20260503020504 61 116 3.0 21.0 0.00 0.00 0.00 36 1015.5
20260503020002 61 324 5.0 21.0 0.00 0.00 0.00 33 1015.4
20260503015504 61 5 4.0 10.0 0.00 0.00 0.00 33 1015.2
20260503015004 61 15 2.0 10.0 0.00 0.00 0.00 34 1015.1
20260503014506 61 117 3.0 10.0 0.00 0.00 0.00 35 1015.4
20260503014003 62 238 3.0 8.0 0.00 0.00 0.00 35 1015.4
20260503013506 62 119 3.0 9.0 0.00 0.00 0.00 35 1015.2
20260503013006 62 98 2.0 10.0 0.00 0.00 0.00 35 1015.1
20260503012503 62 173 2.0 11.0 0.00 0.00 0.00 35 1015.2
20260503012005 62 68 3.0 11.0 0.00 0.00 0.00 35 1015.2
20260503011503 62 159 3.0 16.0 0.00 0.00 0.00 34 1015.1
20260503011004 63 5 3.0 16.0 0.00 0.00 0.00 34 1015.1
20260503010504 64 188 5.0 13.0 0.00 0.00 0.00 32 1015.2
20260503010004 65 190 2.0 7.0 0.00 0.00 0.00 31 1015.1
20260503005504 66 61 2.0 8.0 0.00 0.00 0.00 31 1014.9
20260503005005 66 132 1.0 11.0 0.00 0.00 0.00 31 1015.0
20260503004506 67 204 3.0 11.0 0.00 0.00 0.00 33 1014.9
20260503004002 67 145 2.0 17.0 0.00 0.00 0.00 32 1014.7
20260503003502 66 331 2.0 17.0 0.00 0.00 0.00 32 1014.8
20260503003003 66 203 5.0 9.0 0.00 0.00 0.00 31 1014.9
20260503002503 65 355 1.0 7.0 0.00 0.00 0.00 32 1014.9
20260503002008 65 67 2.0 11.0 0.00 0.00 0.00 33 1014.9
20260503001503 65 309 1.0 16.0 0.00 0.00 0.00 32 1014.9
20260503001005 66 174 9.0 16.0 0.00 0.00 0.00 32 1014.9
20260503000505 66 159 4.0 8.0 0.00 0.00 0.00 30 1014.9
20260503000007 66 115 3.0 21.0 0.00 0.00 0.00 31 1015.0
20260502235504 66 171 10.0 21.0 0.00 0.00 0.00 31 1015.0
20260502235004 66 202 7.0 16.0 0.00 0.00 0.00 31 1015.1
20260502234512 66 305 6.0 18.0 0.00 0.00 0.00 30 1015.0
20260502234004 66 160 9.0 18.0 0.00 0.00 0.00 30 1015.1
20260502233504 66 207 4.0 18.0 0.00 0.00 0.00 30 1015.1
20260502233006 66 207 2.0 18.0 0.00 0.00 0.00 31 1015.0
20260502232503 67 195 6.0 15.0 0.00 0.00 0.00 28 1015.2
20260502232005 67 223 6.0 14.0 0.00 0.00 0.00 31 1015.3
20260502231504 67 198 6.0 14.0 0.00 0.00 0.00 29 1015.3
20260502231004 68 57 3.0 8.0 0.00 0.00 0.00 30 1015.4
20260502230504 67 145 2.0 12.0 0.00 0.00 0.00 30 1015.4
20260502230007 67 189 4.0 12.0 0.00 0.00 0.00 34 1015.6
20260502225504 66 123 3.0 15.0 0.00 0.00 0.00 33 1015.6
20260502225004 67 21 2.0 16.0 0.00 0.00 0.00 30 1015.7
20260502224507 67 169 9.0 16.0 0.00 0.00 0.00 33 1015.9
20260502224004 67 111 3.0 15.0 0.00 0.00 0.00 34 1015.9
20260502223504 66 230 4.0 16.0 0.00 0.00 0.00 32 1016.0
20260502223007 66 140 4.0 17.0 0.00 0.00 0.00 35 1016.1
20260502222504 65 222 9.0 17.0 0.00 0.00 0.00 35 1016.2
20260502222005 65 122 2.0 13.0 0.00 0.00 0.00 32 1016.3
20260502221508 66 201 7.0 15.0 0.00 0.00 0.00 32 1016.4
20260502221003 67 196 6.0 18.0 0.00 0.00 0.00 34 1016.3
20260502220503 67 186 9.0 18.0 0.00 0.00 0.00 33 1016.5
20260502220003 66 215 7.0 16.0 0.00 0.00 0.00 34 1016.5
20260502215505 66 213 8.0 17.0 0.00 0.00 0.00 33 1016.5
20260502215004 65 234 3.0 17.0 0.00 0.00 0.00 33 1016.5
20260502214521 65 181 10.0 17.0 0.00 0.00 0.00 32 1016.7
20260502214004 65 190 8.0 19.0 0.00 0.00 0.00 33 1016.6
20260502213504 66 211 8.0 19.0 0.00 0.00 0.00 35 1016.7
20260502213008 66 171 9.0 19.0 0.00 0.00 0.00 36 1016.6
20260502212505 66 208 7.0 13.0 0.00 0.00 0.00 36 1016.5
20260502212005 66 130 8.0 15.0 0.00 0.00 0.00 35 1016.5
20260502211516 65 175 8.0 15.0 0.00 0.00 0.00 36 1016.6
20260502211003 65 213 5.0 10.0 0.00 0.00 0.00 35 1016.5
20260502210504 65 181 4.0 8.0 0.00 0.00 0.00 36 1016.6
20260502210021 64 217 1.0 9.0 0.00 0.00 0.00 35 1016.7
20260502205503 64 98 2.0 9.0 0.00 0.00 0.00 36 1016.7
20260502205007 63 185 3.0 14.0 0.00 0.00 0.00 35 1016.7
20260502204512 64 155 8.0 14.0 0.00 0.00 0.00 35 1017.0
20260502204003 64 168 6.0 15.0 0.00 0.00 0.00 36 1016.9
20260502203506 64 171 8.0 15.0 0.00 0.00 0.00 34 1017.0
20260502203014 64 212 3.0 15.0 0.00 0.00 0.00 35 1017.0
20260502202503 64 156 3.0 17.0 0.00 0.00 0.00 35 1017.0
20260502202003 64 180 8.0 17.0 0.00 0.00 0.00 35 1017.0
20260502201511 64 121 6.0 16.0 0.00 0.00 0.00 34 1017.0
20260502201006 64 192 6.0 10.0 0.00 0.00 0.00 34 1016.9
20260502200506 64 219 3.0 9.0 0.00 0.00 0.00 36 1017.0
20260502200012 64 169 6.0 13.0 0.00 0.00 0.00 34 1016.9
20260502195505 64 288 3.0 14.0 0.00 0.00 0.00 33 1017.0
20260502195007 64 148 9.0 14.0 0.00 0.00 0.00 33 1017.0
20260502194510 63 213 8.0 16.0 0.00 0.00 0.00 34 1017.0
20260502194006 64 192 6.0 16.0 0.00 0.00 0.00 33 1017.0
20260502193507 64 162 9.0 15.0 0.00 0.00 0.00 33 1017.0
20260502193011 64 167 3.0 12.0 0.00 0.00 0.00 36 1017.0
20260502192506 64 219 6.0 12.0 0.00 0.00 0.00 34 1017.0
20260502192006 64 147 5.0 13.0 0.00 0.00 0.00 36 1016.9
20260502191519 64 150 5.0 14.0 0.00 0.00 0.00 34 1016.9
20260502191003 64 192 8.0 14.0 0.00 0.00 0.00 36 1017.0
20260502190507 63 168 6.0 13.0 0.00 0.00 0.00 35 1017.0
20260502190013 62 175 8.0 13.0 0.00 0.00 0.00 35 1016.9
20260502185507 62 163 5.0 13.0 0.00 0.00 0.00 35 1016.8
20260502185007 62 178 8.0 13.0 0.00 0.00 0.00 36 1016.9
20260502184515 63 143 6.0 10.0 0.00 0.00 0.00 36 1017.0
20260502184009 63 214 3.0 13.0 0.00 0.00 0.00 36 1017.0
20260502183507 63 186 7.0 13.0 0.00 0.00 0.00 33 1016.9
20260502183017 63 202 3.0 10.0 0.00 0.00 0.00 32 1016.7
20260502182508 63 207 4.0 9.0 0.00 0.00 0.00 37 1016.8
20260502182006 63 198 3.0 10.0 0.00 0.00 0.00 36 1016.8
20260502181511 63 162 5.0 19.0 0.00 0.00 0.00 37 1016.8
20260502181006 63 190 6.0 19.0 0.00 0.00 0.00 37 1016.8
20260502180507 64 209 4.0 19.0 0.00 0.00 0.00 32 1016.7
20260502170506 62 131 3.0 9.0 0.00 0.00 0.00 32 1016.4
20260502164008 61 261 3.0 6.0 0.00 0.00 0.00 33 1016.4
20260502163507 60 201 2.0 5.0 0.00 0.00 0.00 33 1016.4
20260502163018 59 262 1.0 4.0 0.00 0.00 0.00 42 1016.4
20260502162509 59 194 1.0 4.0 0.00 0.00 0.00 37 1016.5
20260502162003 58 207 2.0 4.0 0.00 0.00 0.00 36 1016.4
20260502161503 58 228 0.0 3.0 0.00 0.00 0.00 36 1016.3
20260502161004 57 206 0.0 3.0 0.00 0.00 0.00 40 1016.3
20260502160506 57 263 0.0 2.0 0.00 0.00 0.00 38 1016.3
20260502152011 56 207 1.0 2.0 0.00 0.00 0.00 46 1016.2
20260502151521 56 207 0.0 2.0 0.00 0.00 0.00 43 1016.1
20260502151007 56 219 0.0 1.0 0.00 0.00 0.00 44 1016.0
20260502150508 56 137 0.0 1.0 0.00 0.00 0.00 36 1016.0
20260502130508 51 115 1.0 3.0 0.00 0.00 0.00 30 1015.3
20260502123508 51 66 0.0 2.0 0.00 0.00 0.00 33 1015.6
20260502123012 51 66 0.0 2.0 0.00 0.00 0.00 32 1015.6
20260502122503 52 102 0.0 2.0 0.00 0.00 0.00 32 1015.6
20260502122010 52 123 0.0 3.0 0.00 0.00 0.00 30 1015.5
20260502121535 52 123 0.0 3.0 0.00 0.00 0.00 29 1015.6
20260502121008 52 140 2.0 3.0 0.00 0.00 0.00 33 1015.6
20260502120508 52 120 1.0 2.0 0.00 0.00 0.00 30 1015.5
20260502115514 51 105 0.0 3.0 0.00 0.00 0.00 30 1015.4
20260502115009 51 105 1.0 3.0 0.00 0.00 0.00 31 1015.4
20260502114522 52 105 0.0 4.0 0.00 0.00 0.00 30 1015.5
20260502114011 52 105 0.0 4.0 0.00 0.00 0.00 30 1015.6
20260502113508 53 123 0.0 2.0 0.00 0.00 0.00 28 1015.6
20260502113024 54 115 0.0 2.0 0.00 0.00 0.00 27 1015.6
20260502112508 54 115 0.0 2.0 0.00 0.00 0.00 26 1015.6
20260502112008 53 109 0.0 2.0 0.00 0.00 0.00 26 1015.7
20260502111511 53 100 0.0 2.0 0.00 0.00 0.00 26 1015.6
20260502110508 52 104 0.0 3.0 0.00 0.00 0.00 29 1015.7
20260502110023 52 113 1.0 3.0 0.00 0.00 0.00 30 1015.8
20260502105510 52 116 1.0 3.0 0.00 0.00 0.00 31 1015.7
20260502105015 51 108 2.0 3.0 0.00 0.00 0.00 31 1015.8
20260502104523 51 111 2.0 3.0 0.00 0.00 0.00 32 1015.8
20260502104006 51 111 1.0 3.0 0.00 0.00 0.00 32 1015.8
20260502103511 51 111 2.0 3.0 0.00 0.00 0.00 31 1015.9
20260502103024 51 110 2.0 3.0 0.00 0.00 0.00 31 1015.9
20260502102511 51 109 1.0 3.0 0.00 0.00 0.00 31 1015.9
20260502102014 51 110 2.0 3.0 0.00 0.00 0.00 31 1015.8
20260502101526 51 109 1.0 3.0 0.00 0.00 0.00 32 1015.9
20260502101008 51 107 1.0 3.0 0.00 0.00 0.00 31 1015.9
20260502100510 51 109 1.0 3.0 0.00 0.00 0.00 32 1015.9
20260502091526 51 94 1.0 3.0 0.00 0.00 0.00 43 1016.3
20260502091008 52 106 0.0 2.0 0.00 0.00 0.00 43 1016.3
20260502090510 51 106 0.0 2.0 0.00 0.00 0.00 45 1016.4
20260502071503 53 113 1.0 3.0 0.00 0.00 0.00 46 1017.3
20260502071007 53 100 0.0 3.0 0.00 0.00 0.00 46 1017.3
20260502070504 53 100 1.0 3.0 0.00 0.00 0.00 45 1017.4
20260502070018 53 103 1.0 3.0 0.00 0.00 0.00 45 1017.4
20260502065505 53 96 1.0 3.0 0.00 0.00 0.00 45 1017.4
20260502065007 53 96 0.0 3.0 0.00 0.00 0.00 45 1017.4
20260502064513 53 101 1.0 3.0 0.00 0.00 0.00 45 1017.4
20260502064004 53 118 1.0 2.0 0.00 0.00 0.00 45 1017.5
20260502063507 53 118 1.0 2.0 0.00 0.00 0.00 46 1017.4
20260502063025 52 109 1.0 2.0 0.00 0.00 0.00 46 1017.5
20260502062510 52 109 1.0 2.0 0.00 0.00 0.00 47 1017.5
20260502062008 52 109 1.0 2.0 0.00 0.00 0.00 47 1017.6
20260502061521 53 104 0.0 1.0 0.00 0.00 0.00 46 1017.5